| time (UTC) | temp F | wind direction | speed MPH | gust MPH | rain 1hr in | rain 24hr in | rain mn in | humidity % | barometer mb |
| 20260504215523 | 58 | 115 | 1.0 | 5.0 | 0.00 | 0.00 | 0.00 | 86 | 1011.1 |
| 20260504215026 | 59 | 186 | 1.0 | 4.0 | 0.00 | 0.00 | 0.00 | 86 | 1011.1 |
| 20260504214541 | 59 | 262 | 1.0 | 7.0 | 0.00 | 0.00 | 0.00 | 87 | 1011.2 |
| 20260504214025 | 59 | 143 | 1.0 | 7.0 | 0.00 | 0.00 | 0.00 | 86 | 1011.2 |
| 20260504213523 | 59 | 0 | 1.0 | 6.0 | 0.00 | 0.00 | 0.00 | 87 | 1011.1 |
| 20260504213040 | 59 | 155 | 1.0 | 6.0 | 0.00 | 0.00 | 0.00 | 87 | 1011.1 |
| 20260504212523 | 58 | 59 | 1.0 | 5.0 | 0.00 | 0.00 | 0.00 | 87 | 1011.0 |
| 20260504212024 | 58 | 123 | 2.0 | 5.0 | 0.00 | 0.00 | 0.00 | 87 | 1011.0 |
| 20260504211604 | 58 | 279 | 1.0 | 6.0 | 0.00 | 0.00 | 0.00 | 87 | 1011.1 |
| 20260504211023 | 58 | 154 | 0.0 | 6.0 | 0.00 | 0.00 | 0.00 | 87 | 1011.1 |
| 20260504210523 | 58 | 0 | 1.0 | 6.0 | 0.00 | 0.00 | 0.00 | 87 | 1011.1 |
| 20260504210043 | 58 | 162 | 1.0 | 6.0 | 0.00 | 0.00 | 0.00 | 87 | 1011.1 |
| 20260504205523 | 58 | 92 | 1.0 | 6.0 | 0.00 | 0.00 | 0.00 | 87 | 1011.1 |
| 20260504205023 | 58 | 177 | 1.0 | 9.0 | 0.00 | 0.00 | 0.00 | 88 | 1011.2 |
| 20260504204543 | 58 | 0 | 0.0 | 9.0 | 0.00 | 0.00 | 0.00 | 88 | 1011.2 |
| 20260504204023 | 58 | 95 | 1.0 | 6.0 | 0.00 | 0.00 | 0.00 | 88 | 1011.1 |
| 20260504203522 | 58 | 162 | 2.0 | 6.0 | 0.00 | 0.00 | 0.00 | 88 | 1011.0 |
| 20260504203043 | 58 | 0 | 1.0 | 6.0 | 0.00 | 0.00 | 0.00 | 88 | 1011.1 |
| 20260504202522 | 58 | 311 | 1.0 | 6.0 | 0.00 | 0.00 | 0.00 | 88 | 1011.1 |
| 20260504202023 | 57 | 0 | 1.0 | 6.0 | 0.00 | 0.00 | 0.00 | 88 | 1011.0 |
| 20260504201540 | 57 | 63 | 2.0 | 6.0 | 0.00 | 0.00 | 0.00 | 88 | 1011.1 |
| 20260504201026 | 58 | 0 | 1.0 | 6.0 | 0.00 | 0.00 | 0.00 | 88 | 1011.1 |
| 20260504200523 | 58 | 149 | 1.0 | 5.0 | 0.00 | 0.00 | 0.00 | 89 | 1011.1 |
| 20260504200039 | 57 | 319 | 1.0 | 6.0 | 0.00 | 0.00 | 0.00 | 88 | 1011.1 |
| 20260504195522 | 57 | 131 | 1.0 | 6.0 | 0.00 | 0.00 | 0.00 | 89 | 1011.1 |
| 20260504195023 | 58 | 144 | 1.0 | 6.0 | 0.00 | 0.00 | 0.00 | 89 | 1011.1 |
| 20260504194547 | 57 | 81 | 1.0 | 6.0 | 0.00 | 0.00 | 0.00 | 89 | 1011.0 |
| 20260504194023 | 57 | 146 | 1.0 | 6.0 | 0.00 | 0.00 | 0.00 | 89 | 1011.1 |
| 20260504193522 | 57 | 0 | 1.0 | 6.0 | 0.00 | 0.00 | 0.00 | 89 | 1011.1 |
| 20260504193037 | 57 | 241 | 1.0 | 6.0 | 0.00 | 0.00 | 0.00 | 90 | 1011.0 |
| 20260504192524 | 57 | 107 | 1.0 | 8.0 | 0.00 | 0.00 | 0.00 | 90 | 1011.1 |
| 20260504192022 | 56 | 95 | 3.0 | 8.0 | 0.00 | 0.00 | 0.00 | 90 | 1011.1 |
| 20260504191601 | 57 | 298 | 3.0 | 9.0 | 0.00 | 0.00 | 0.00 | 90 | 1011.0 |
| 20260504191022 | 57 | 149 | 2.0 | 9.0 | 0.00 | 0.00 | 0.00 | 90 | 1011.2 |
| 20260504190523 | 57 | 200 | 2.0 | 8.0 | 0.00 | 0.00 | 0.00 | 90 | 1011.1 |
| 20260504190045 | 57 | 172 | 1.0 | 7.0 | 0.00 | 0.00 | 0.00 | 90 | 1011.1 |
| 20260504185522 | 57 | 346 | 1.0 | 7.0 | 0.00 | 0.00 | 0.00 | 90 | 1011.1 |
| 20260504185023 | 57 | 227 | 1.0 | 4.0 | 0.00 | 0.00 | 0.00 | 91 | 1011.1 |
| 20260504184547 | 57 | 71 | 0.0 | 10.0 | 0.00 | 0.00 | 0.00 | 91 | 1011.0 |
| 20260504184024 | 56 | 131 | 2.0 | 10.0 | 0.00 | 0.00 | 0.00 | 91 | 1011.0 |
| 20260504183524 | 56 | 106 | 1.0 | 6.0 | 0.00 | 0.00 | 0.00 | 91 | 1011.0 |
| 20260504183038 | 56 | 206 | 1.0 | 6.0 | 0.00 | 0.00 | 0.00 | 91 | 1010.9 |
| 20260504182524 | 57 | 235 | 1.0 | 6.0 | 0.00 | 0.00 | 0.00 | 92 | 1011.0 |
| 20260504182024 | 57 | 180 | 1.0 | 6.0 | 0.00 | 0.00 | 0.00 | 92 | 1011.0 |
| 20260504181542 | 57 | 260 | 1.0 | 7.0 | 0.00 | 0.00 | 0.00 | 92 | 1010.9 |
| 20260504181024 | 56 | 114 | 1.0 | 7.0 | 0.00 | 0.00 | 0.00 | 92 | 1011.0 |
| 20260504180524 | 56 | 169 | 2.0 | 7.0 | 0.00 | 0.00 | 0.00 | 93 | 1010.8 |
| 20260504180041 | 56 | 355 | 1.0 | 7.0 | 0.00 | 0.00 | 0.00 | 93 | 1010.9 |
| 20260504175524 | 56 | 179 | 1.0 | 7.0 | 0.00 | 0.00 | 0.00 | 93 | 1010.9 |
| 20260504175029 | 56 | 39 | 2.0 | 7.0 | 0.00 | 0.00 | 0.00 | 93 | 1010.7 |
| 20260504174544 | 56 | 252 | 1.0 | 5.0 | 0.00 | 0.00 | 0.00 | 93 | 1010.8 |
| 20260504174024 | 56 | 142 | 1.0 | 6.0 | 0.00 | 0.00 | 0.00 | 94 | 1010.8 |
| 20260504173524 | 56 | 0 | 1.0 | 6.0 | 0.00 | 0.00 | 0.00 | 93 | 1010.8 |
| 20260504173042 | 56 | 197 | 0.0 | 6.0 | 0.00 | 0.00 | 0.00 | 94 | 1010.8 |
| 20260504172524 | 55 | 217 | 0.0 | 6.0 | 0.00 | 0.00 | 0.00 | 94 | 1010.7 |
| 20260504172025 | 55 | 122 | 0.0 | 6.0 | 0.00 | 0.00 | 0.00 | 94 | 1010.7 |
| 20260504171547 | 55 | 132 | 1.0 | 6.0 | 0.00 | 0.00 | 0.00 | 94 | 1010.6 |
| 20260504171025 | 55 | 185 | 2.0 | 6.0 | 0.00 | 0.00 | 0.00 | 94 | 1010.6 |
| 20260504170524 | 55 | 92 | 0.0 | 6.0 | 0.00 | 0.00 | 0.00 | 95 | 1010.6 |
| 20260504151027 | 53 | 194 | 1.0 | 8.0 | 0.00 | 0.00 | 0.00 | 96 | 1009.9 |
| 20260504150526 | 53 | 92 | 1.0 | 4.0 | 0.00 | 0.00 | 0.00 | 96 | 1009.8 |
| 20260504141024 | 53 | 80 | 1.0 | 9.0 | 0.00 | 0.00 | 0.00 | 96 | 1009.4 |
| 20260504140525 | 53 | 233 | 1.0 | 9.0 | 0.00 | 0.00 | 0.00 | 96 | 1009.3 |
| 20260504130524 | 52 | 157 | 0.0 | 7.0 | 0.00 | 0.00 | 0.00 | 96 | 1008.7 |
| 20260504110524 | 52 | 74 | 1.0 | 6.0 | 0.00 | 0.00 | 0.00 | 95 | 1008.0 |
| 20260504100524 | 51 | 0 | 0.0 | 6.0 | 0.00 | 0.00 | 0.00 | 94 | 1007.4 |
| 20260504081535 | 51 | 0 | 0.0 | 2.0 | 0.00 | 0.00 | 0.00 | 92 | 1006.4 |
| 20260504081026 | 51 | 0 | 0.0 | 2.0 | 0.00 | 0.00 | 0.00 | 92 | 1006.5 |
| 20260504080524 | 51 | 239 | 0.0 | 3.0 | 0.00 | 0.00 | 0.00 | 92 | 1006.4 |
| 20260504050523 | 54 | 300 | 1.0 | 3.0 | 0.00 | 0.00 | 0.00 | 87 | 1006.7 |
| 20260504045524 | 55 | 300 | 1.0 | 3.0 | 0.00 | 0.00 | 0.00 | 87 | 1006.7 |
| 20260504045024 | 55 | 300 | 1.0 | 3.0 | 0.00 | 0.00 | 0.00 | 87 | 1006.7 |
| 20260504044539 | 55 | 300 | 1.0 | 3.0 | 0.00 | 0.00 | 0.00 | 87 | 1006.7 |
| 20260504044023 | 55 | 0 | 1.0 | 3.0 | 0.00 | 0.00 | 0.00 | 86 | 1006.6 |
| 20260504043524 | 55 | 300 | 1.0 | 3.0 | 0.00 | 0.00 | 0.00 | 86 | 1006.6 |
| 20260504043041 | 55 | 0 | 0.0 | 2.0 | 0.00 | 0.00 | 0.00 | 86 | 1006.5 |
| 20260504042524 | 55 | 0 | 0.0 | 3.0 | 0.00 | 0.00 | 0.00 | 86 | 1006.7 |
| 20260504042024 | 55 | 0 | 0.0 | 3.0 | 0.00 | 0.00 | 0.00 | 85 | 1006.5 |
| 20260504041536 | 55 | 0 | 0.0 | 3.0 | 0.00 | 0.00 | 0.00 | 85 | 1006.4 |
| 20260504041023 | 56 | 300 | 0.0 | 3.0 | 0.00 | 0.00 | 0.00 | 84 | 1006.6 |
| 20260504040525 | 56 | 0 | 0.0 | 3.0 | 0.00 | 0.00 | 0.00 | 84 | 1006.6 |
| 20260504040047 | 56 | 321 | 0.0 | 4.0 | 0.00 | 0.00 | 0.00 | 83 | 1006.5 |
| 20260504035523 | 56 | 0 | 1.0 | 5.0 | 0.00 | 0.03 | 0.00 | 83 | 1006.5 |
| 20260504035024 | 56 | 285 | 0.0 | 6.0 | 0.00 | 0.03 | 0.00 | 82 | 1006.5 |
| 20260504034541 | 57 | 277 | 1.0 | 6.0 | 0.00 | 0.03 | 0.00 | 81 | 1006.4 |
| 20260504034027 | 57 | 295 | 2.0 | 6.0 | 0.00 | 0.03 | 0.00 | 81 | 1006.5 |
| 20260504033523 | 58 | 300 | 2.0 | 7.0 | 0.00 | 0.03 | 0.00 | 80 | 1006.5 |
| 20260504033042 | 59 | 304 | 2.0 | 7.0 | 0.00 | 0.03 | 0.00 | 80 | 1006.5 |
| 20260504032524 | 59 | 0 | 1.0 | 6.0 | 0.00 | 0.03 | 0.00 | 79 | 1006.4 |
| 20260504032023 | 60 | 279 | 2.0 | 8.0 | 0.00 | 0.03 | 0.00 | 79 | 1006.4 |
| 20260504031552 | 60 | 305 | 2.0 | 8.0 | 0.00 | 0.03 | 0.00 | 78 | 1006.4 |
| 20260504031023 | 60 | 294 | 2.0 | 10.0 | 0.00 | 0.03 | 0.00 | 77 | 1006.4 |
| 20260504030523 | 60 | 269 | 3.0 | 10.0 | 0.00 | 0.03 | 0.00 | 77 | 1006.4 |
| 20260504030042 | 60 | 278 | 3.0 | 9.0 | 0.00 | 0.03 | 0.00 | 77 | 1006.3 |
| 20260504025524 | 60 | 294 | 3.0 | 9.0 | 0.00 | 0.03 | 0.00 | 77 | 1006.4 |
| 20260504025024 | 61 | 290 | 4.0 | 9.0 | 0.00 | 0.03 | 0.00 | 77 | 1006.4 |
| 20260504024537 | 61 | 306 | 3.0 | 8.0 | 0.00 | 0.03 | 0.00 | 76 | 1006.4 |
| 20260504024023 | 61 | 271 | 4.0 | 9.0 | 0.00 | 0.03 | 0.00 | 77 | 1006.3 |
| 20260504023523 | 61 | 307 | 4.0 | 11.0 | 0.00 | 0.03 | 0.00 | 77 | 1006.5 |
| 20260504023043 | 61 | 304 | 5.0 | 11.0 | 0.00 | 0.03 | 0.00 | 77 | 1006.4 |
| 20260504022526 | 61 | 340 | 3.0 | 9.0 | 0.00 | 0.03 | 0.00 | 77 | 1006.4 |
| 20260504022024 | 61 | 301 | 3.0 | 10.0 | 0.00 | 0.03 | 0.00 | 78 | 1006.5 |
| 20260504021607 | 61 | 290 | 4.0 | 11.0 | 0.00 | 0.03 | 0.00 | 77 | 1006.6 |
| 20260504021023 | 61 | 340 | 5.0 | 11.0 | 0.00 | 0.03 | 0.00 | 77 | 1006.6 |
| 20260504020523 | 61 | 305 | 5.0 | 13.0 | 0.00 | 0.03 | 0.00 | 77 | 1006.6 |
| 20260504020039 | 61 | 294 | 5.0 | 13.0 | 0.00 | 0.03 | 0.00 | 76 | 1006.6 |
| 20260504015523 | 61 | 325 | 6.0 | 13.0 | 0.00 | 0.03 | 0.00 | 76 | 1006.7 |
| 20260504015025 | 61 | 327 | 7.0 | 13.0 | 0.00 | 0.03 | 0.00 | 74 | 1006.7 |
| 20260504014542 | 62 | 294 | 5.0 | 12.0 | 0.00 | 0.03 | 0.00 | 74 | 1006.8 |
| 20260504014022 | 62 | 331 | 5.0 | 13.0 | 0.00 | 0.03 | 0.00 | 73 | 1006.9 |
| 20260504013522 | 62 | 294 | 6.0 | 13.0 | 0.00 | 0.03 | 0.00 | 72 | 1006.9 |
| 20260504013042 | 62 | 296 | 7.0 | 13.0 | 0.00 | 0.03 | 0.00 | 72 | 1006.9 |
| 20260504012523 | 62 | 336 | 6.0 | 12.0 | 0.00 | 0.03 | 0.00 | 72 | 1006.9 |
| 20260504012024 | 62 | 294 | 4.0 | 13.0 | 0.00 | 0.03 | 0.00 | 72 | 1007.0 |
| 20260504011540 | 62 | 284 | 7.0 | 13.0 | 0.00 | 0.03 | 0.00 | 71 | 1007.0 |
| 20260504011023 | 62 | 355 | 5.0 | 13.0 | 0.00 | 0.03 | 0.00 | 71 | 1007.1 |
| 20260504010523 | 62 | 292 | 7.0 | 13.0 | 0.00 | 0.03 | 0.00 | 69 | 1007.1 |
| 20260504010035 | 63 | 309 | 6.0 | 11.0 | 0.00 | 0.03 | 0.00 | 69 | 1007.2 |
| 20260504005523 | 63 | 279 | 4.0 | 12.0 | 0.00 | 0.03 | 0.00 | 70 | 1007.3 |
| 20260504005023 | 62 | 296 | 6.0 | 12.0 | 0.00 | 0.03 | 0.00 | 69 | 1007.3 |
| 20260504004541 | 63 | 319 | 5.0 | 14.0 | 0.00 | 0.03 | 0.00 | 68 | 1007.4 |
| 20260504004024 | 63 | 258 | 5.0 | 14.0 | 0.00 | 0.03 | 0.00 | 68 | 1007.4 |
| 20260504003523 | 63 | 281 | 7.0 | 14.0 | 0.00 | 0.03 | 0.00 | 66 | 1007.4 |
| 20260504003040 | 64 | 313 | 8.0 | 16.0 | 0.00 | 0.03 | 0.00 | 63 | 1007.5 |
| 20260504002523 | 64 | 286 | 7.0 | 16.0 | 0.00 | 0.03 | 0.00 | 62 | 1007.6 |
| 20260504002023 | 64 | 291 | 9.0 | 16.0 | 0.00 | 0.03 | 0.00 | 62 | 1007.6 |
| 20260504001548 | 64 | 309 | 6.0 | 11.0 | 0.00 | 0.03 | 0.00 | 65 | 1007.6 |
| 20260504001024 | 65 | 292 | 5.0 | 16.0 | 0.00 | 0.03 | 0.00 | 65 | 1007.5 |
| 20260504000522 | 65 | 288 | 6.0 | 17.0 | 0.00 | 0.03 | 0.00 | 63 | 1007.6 |
| 20260504000038 | 65 | 303 | 8.0 | 17.0 | 0.00 | 0.03 | 0.00 | 61 | 1007.7 |
| 20260503235524 | 65 | 295 | 7.0 | 17.0 | 0.00 | 0.03 | 0.00 | 64 | 1007.8 |
| 20260503235022 | 65 | 298 | 5.0 | 15.0 | 0.00 | 0.03 | 0.00 | 67 | 1007.8 |
| 20260503234558 | 65 | 285 | 7.0 | 16.0 | 0.00 | 0.03 | 0.00 | 66 | 1007.7 |
| 20260503234023 | 65 | 290 | 7.0 | 16.0 | 0.00 | 0.03 | 0.00 | 67 | 1007.9 |
| 20260503233524 | 65 | 315 | 9.0 | 16.0 | 0.00 | 0.03 | 0.00 | 65 | 1007.8 |
| 20260503233047 | 65 | 312 | 9.0 | 17.0 | 0.00 | 0.03 | 0.00 | 66 | 1007.9 |
| 20260503232523 | 65 | 290 | 8.0 | 17.0 | 0.00 | 0.03 | 0.00 | 66 | 1008.0 |
| 20260503232023 | 65 | 290 | 10.0 | 19.0 | 0.00 | 0.03 | 0.00 | 65 | 1008.0 |
| 20260503231539 | 65 | 298 | 9.0 | 19.0 | 0.00 | 0.03 | 0.00 | 67 | 1008.1 |
| 20260503231025 | 64 | 309 | 9.0 | 19.0 | 0.00 | 0.03 | 0.00 | 69 | 1008.1 |
| 20260503230523 | 64 | 304 | 10.0 | 19.0 | 0.00 | 0.03 | 0.00 | 70 | 1008.2 |
| 20260503230041 | 63 | 274 | 9.0 | 18.0 | 0.00 | 0.03 | 0.00 | 70 | 1008.2 |
| 20260503225522 | 63 | 296 | 10.0 | 18.0 | 0.00 | 0.03 | 0.00 | 70 | 1008.3 |
| 20260503225023 | 63 | 312 | 9.0 | 17.0 | 0.00 | 0.03 | 0.00 | 70 | 1008.3 |
| 20260503224539 | 63 | 319 | 9.0 | 21.0 | 0.00 | 0.03 | 0.00 | 69 | 1008.5 |
| 20260503224023 | 63 | 290 | 11.0 | 21.0 | 0.00 | 0.03 | 0.00 | 67 | 1008.6 |
| 20260503223522 | 63 | 311 | 10.0 | 19.0 | 0.00 | 0.03 | 0.00 | 67 | 1008.6 |
| 20260503223036 | 63 | 300 | 8.0 | 19.0 | 0.00 | 0.03 | 0.00 | 67 | 1008.7 |
| 20260503222522 | 63 | 317 | 11.0 | 19.0 | 0.00 | 0.03 | 0.00 | 68 | 1008.8 |
| 20260503222023 | 63 | 324 | 10.0 | 17.0 | 0.00 | 0.03 | 0.00 | 69 | 1008.8 |
| 20260503221537 | 62 | 311 | 9.0 | 16.0 | 0.00 | 0.03 | 0.00 | 70 | 1008.8 |
| 20260503221023 | 62 | 313 | 9.0 | 17.0 | 0.00 | 0.03 | 0.00 | 70 | 1008.9 |
| 20260503220523 | 62 | 319 | 8.0 | 17.0 | 0.00 | 0.03 | 0.00 | 69 | 1008.8 |
| 20260503220047 | 63 | 297 | 7.0 | 14.0 | 0.00 | 0.03 | 0.00 | 69 | 1008.9 |